Date String (YYYY-MM-DD hh:mm:ss) UTC,Instrument flags,absolute air pressure of the measurement (hPa),sample flow rate (lpm),inlet stack bypass flow (lpm),air temperature of the measurement (°C),ambient temperature measured by the external sensor (°C),aerosol sample conditioner tube jacket temperature (°C),OPC LED temperature (°C),internal box temperature (°C),relative humidity of the measurement (%),span deviation,mass concentration of particles derived from Lorenz-Mie calculation of OPC scattering (μg/m³),mass concentration of particles derived from Lorenz-Mie calculation of OPC scattering (μg/m³),mass concentration of particles derived from Lorenz-Mie calculation of OPC scattering (μg/m³)
DateTimeUTC,F1_M11,P_M11,Q1_M11,Q2_M11,T1_M11,T2_M11,T3_M11,T4_M11,T5_M11,U1_M11,ZSPAN_M11,X2_M11,X0_M11,X1_M11
2023-08-08 03:00:00,SystemResetWarning,0832.9,5.00,000.00,029.2,027.4,000.0,037.8,030.9,33.7,0000.0,0006.08,0013.07,0005.02
2023-08-08 03:01:00,SystemResetWarning,0832.9,5.00,000.00,029.2,027.6,000.0,037.8,030.9,33.8,0001.0,0006.08,0013.17,0005.00
2023-08-08 03:02:00,SystemResetWarning,0832.9,5.00,000.00,029.3,027.8,000.0,037.8,030.9,33.5,0001.3,0006.05,0013.37,0004.99
2023-08-08 03:03:00,SystemResetWarning,0833.0,5.00,000.00,029.3,027.9,000.0,037.8,031.0,33.1,0001.7,0006.02,0013.43,0004.99
2023-08-08 03:04:00,SystemResetWarning,0833.0,5.00,000.00,029.3,028.0,000.0,037.8,031.0,32.8,0001.4,0005.96,0013.44,0004.98
2023-08-08 03:05:00,SystemResetWarning,0833.3,5.00,000.00,029.4,028.1,000.0,037.9,031.1,32.8,0000.7,0006.00,0013.16,0004.97
2023-08-08 03:06:00,SystemResetWarning,0833.2,5.00,000.00,029.4,028.2,000.0,037.9,031.1,32.7,0000.9,0005.96,0013.52,0004.97
2023-08-08 03:07:00,SystemResetWarning,0833.0,4.99,000.00,029.4,028.3,000.0,037.9,031.1,32.8,0001.3,0005.98,0013.19,0004.99
2023-08-08 03:08:00,SystemResetWarning,0833.0,4.99,000.00,029.4,027.2,000.0,037.8,031.0,33.1,0001.5,0006.02,0013.01,0005.01
2023-08-08 03:09:00,SystemResetWarning,0833.0,5.00,000.00,029.4,025.6,000.0,037.7,030.7,33.0,0001.8,0006.02,0013.92,0005.02
2023-08-08 03:10:00,SystemResetWarning,0833.0,5.00,000.00,029.3,025.2,000.0,037.6,030.5,33.3,0001.8,0006.04,0014.19,0005.03
2023-08-08 03:11:00,SystemResetWarning,0833.0,5.01,000.00,029.2,025.4,000.0,037.7,030.4,33.7,0000.9,0006.07,0015.18,0005.04
2023-08-08 03:12:00,SystemResetWarning,0833.0,5.00,000.00,029.1,025.8,000.0,037.7,030.4,33.3,0001.0,0006.11,0015.60,0005.05
2023-08-08 03:13:00,SystemResetWarning,0833.1,5.00,000.00,029.1,026.2,000.0,037.7,030.5,33.3,0000.8,0006.16,0016.32,0005.05
2023-08-08 03:14:00,SystemResetWarning,0833.5,5.00,000.00,029.1,026.6,000.0,037.7,030.6,33.0,0000.1,0006.19,0016.14,0005.06
2023-08-08 03:15:00,SystemResetWarning,0833.0,5.00,000.00,029.1,026.9,000.0,037.7,030.7,33.0,0000.1,0006.21,0015.97,0005.05
2023-08-08 03:16:00,SystemResetWarning,0833.2,4.99,000.00,029.1,027.2,000.0,037.7,030.8,32.6,0000.1,0006.17,0016.00,0005.05
2023-08-08 03:17:00,SystemResetWarning,0833.0,4.99,000.00,029.2,027.4,000.0,037.7,030.8,33.0,0000.1,0006.17,0015.76,0005.06
2023-08-08 03:18:00,SystemResetWarning,0833.3,5.01,000.00,029.2,027.6,000.0,037.7,030.9,33.3,0000.2,0006.19,0016.07,0005.05
2023-08-08 03:19:00,SystemResetWarning,0833.1,5.01,000.00,029.2,027.7,000.0,037.8,030.9,32.9,-000.3,0006.13,0016.11,0005.03
2023-08-08 03:20:00,SystemResetWarning,0833.2,5.00,000.00,029.3,027.9,000.0,037.8,031.0,32.8,-000.2,0006.13,0016.53,0005.02
2023-08-08 03:21:00,SystemResetWarning,0833.2,4.99,000.00,029.3,028.0,000.0,037.8,031.0,32.9,-000.2,0006.09,0017.04,0005.01
2023-08-08 03:22:00,SystemResetWarning,0833.2,4.99,000.00,029.3,028.1,000.0,037.8,031.0,32.8,0000.5,0006.09,0016.10,0005.01
2023-08-08 03:23:00,SystemResetWarning,0833.2,5.00,000.00,029.4,028.2,000.0,037.8,031.1,32.7,0000.4,0006.08,0016.07,0005.03
2023-08-08 03:24:00,SystemResetWarning,0833.3,5.01,000.00,029.4,028.3,000.0,037.9,031.1,32.9,0000.6,0006.10,0015.59,0005.05
2023-08-08 03:25:00,SystemResetWarning,0833.3,5.01,000.00,029.4,028.3,000.0,037.9,031.1,33.1,0000.4,0006.14,0015.57,0005.08
2023-08-08 03:26:00,SystemResetWarning,0833.3,4.98,000.00,029.4,027.5,000.0,037.8,031.0,33.1,-000.0,0006.14,0016.20,0005.10
2023-08-08 03:27:00,SystemResetWarning,0833.3,5.00,000.00,029.4,025.8,000.0,037.7,030.7,33.1,0000.0,0006.19,0016.30,0005.11
2023-08-08 03:28:00,SystemResetWarning,0833.3,5.02,000.00,029.3,025.2,000.0,037.6,030.5,33.2,-000.1,0006.26,0015.87,0005.13
2023-08-08 03:29:00,SystemResetWarning,0833.3,4.99,000.00,029.2,025.3,000.0,037.6,030.3,33.2,0000.1,0006.28,0015.74,0005.15
2023-08-08 03:30:00,SystemResetWarning,0833.3,5.00,000.00,029.1,025.7,000.0,037.7,030.4,32.9,0000.1,0006.30,0015.94,0005.17
2023-08-08 03:31:00,SystemResetWarning,0833.3,5.00,000.00,029.1,026.1,000.0,037.7,030.5,32.7,0000.1,0006.28,0014.86,0005.17
2023-08-08 03:32:00,SystemResetWarning,0833.4,5.00,000.00,029.1,026.5,000.0,037.7,030.6,32.7,-000.1,0006.34,0013.66,0005.20
2023-08-08 03:33:00,SystemResetWarning,0833.4,5.00,000.00,029.1,026.8,000.0,037.7,030.7,32.7,-000.0,0006.36,0013.59,0005.21
2023-08-08 03:34:00,SystemResetWarning,0833.4,5.00,000.00,029.1,027.1,000.0,037.7,030.8,32.8,-000.3,0006.30,0013.70,0005.19
2023-08-08 03:35:00,SystemResetWarning,0833.4,5.00,000.00,029.2,027.4,000.0,037.7,030.8,32.7,-000.5,0006.28,0013.68,0005.17
2023-08-08 03:36:00,SystemResetWarning,0833.4,4.99,000.00,029.2,027.6,000.0,037.7,030.8,32.5,0000.3,0006.24,0013.59,0005.15
2023-08-08 03:37:00,SystemResetWarning,0833.5,5.00,000.00,029.2,027.7,000.0,037.7,030.9,32.2,0001.2,0006.25,0013.68,0005.14
2023-08-08 03:38:00,SystemResetWarning,0833.6,5.00,000.00,029.2,027.9,000.0,037.8,030.9,32.1,0001.5,0006.17,0013.55,0005.11
2023-08-08 03:39:00,SystemResetWarning,0833.6,5.01,000.00,029.3,028.0,000.0,037.8,031.0,32.0,0001.3,0006.11,0013.45,0005.10
2023-08-08 03:40:00,SystemResetWarning,0833.6,5.00,000.00,029.3,028.1,000.0,037.8,031.0,31.8,0000.9,0006.10,0014.10,0005.09
2023-08-08 03:41:00,SystemResetWarning,0833.5,5.01,000.00,029.3,028.2,000.0,037.8,031.0,31.7,0001.0,0006.09,0013.48,0005.08
2023-08-08 03:42:00,SystemResetWarning,0833.5,5.00,000.00,029.4,028.3,000.0,037.8,031.1,31.6,0001.0,0006.08,0013.83,0005.08
2023-08-08 03:43:00,SystemResetWarning,0833.5,5.01,000.00,029.4,028.3,000.0,037.9,031.1,31.4,0001.2,0006.05,0013.90,0005.07
2023-08-08 03:44:00,SystemResetWarning,0833.6,5.00,000.00,029.4,028.4,000.0,037.9,031.2,31.3,0000.3,0006.08,0015.10,0005.07
2023-08-08 03:45:00,SystemResetWarning,0833.6,4.98,000.00,029.5,027.9,000.0,037.9,031.1,31.2,0000.7,0006.14,0014.65,0005.09
2023-08-08 03:46:00,SystemResetWarning,0833.6,4.99,000.00,029.4,026.0,000.0,037.7,030.9,31.2,0001.0,0006.15,0015.05,0005.11
2023-08-08 03:47:00,SystemResetWarning,0833.6,5.01,000.00,029.4,025.2,000.0,037.6,030.7,31.2,-000.1,0006.14,0015.30,0005.13
2023-08-08 03:48:00,SystemResetWarning,0833.6,5.01,000.00,029.3,025.3,000.0,037.7,030.5,31.3,-001.0,0006.14,0015.25,0005.14
2023-08-08 03:49:00,SystemResetWarning,0833.6,5.00,000.00,029.2,025.7,000.0,037.7,030.5,31.4,-001.4,0006.22,0015.71,0005.18
2023-08-08 03:50:00,SystemResetWarning,0833.6,5.01,000.00,029.1,026.1,000.0,037.7,030.6,31.5,-001.7,0006.26,0016.94,0005.19
2023-08-08 03:51:00,SystemResetWarning,0833.6,5.00,000.00,029.1,026.4,000.0,037.7,030.6,31.5,-001.6,0006.22,0016.51,0005.19
2023-08-08 03:52:00,SystemResetWarning,0833.6,5.00,000.00,029.1,026.8,000.0,037.7,030.7,31.4,-001.6,0006.19,0016.84,0005.18
2023-08-08 03:53:00,SystemResetWarning,0833.7,5.00,000.00,029.2,027.1,000.0,037.7,030.8,31.3,-001.7,0006.20,0016.93,0005.17
2023-08-08 03:54:00,SystemResetWarning,0833.7,5.00,000.00,029.2,027.3,000.0,037.7,030.8,31.3,-002.1,0006.20,0017.39,0005.17
2023-08-08 03:55:00,SystemResetWarning,0833.7,4.99,000.00,029.2,027.5,000.0,037.8,030.9,31.2,-001.9,0006.14,0016.69,0005.16
2023-08-08 03:56:00,SystemResetWarning,0833.7,5.00,000.00,029.2,027.7,000.0,037.8,030.9,31.2,-001.7,0006.10,0016.97,0005.14
2023-08-08 03:57:00,SystemResetWarning,0833.7,5.00,000.00,029.2,027.8,000.0,037.8,030.9,31.1,-001.9,0006.06,0016.76,0005.12
2023-08-08 03:58:00,SystemResetWarning,0833.7,5.00,000.00,029.3,027.9,000.0,037.8,031.0,31.1,-001.5,0006.07,0017.03,0005.10
2023-08-08 03:59:00,SystemResetWarning,0833.7,5.00,000.00,029.3,028.0,000.0,037.8,031.0,31.0,-001.6,0006.04,0016.30,0005.10
